Regional Weather Roundup
Issued by NWS

Home | Current Version | Previous Version | Text Only | Print | Product List | Glossary Off
Versions: 1 2 3 4 5 6 7 8 9 10 11 12 13 14 15 16 17 18 19 20 21 22 23 24 25 26 27 28 29 30 31 32 33 34 35 36 37 38 39 40 41 42 43 44 45 46 47 48 49 50

000
ASUS43 KLMK 250302
RWRKY
KENTUCKY REGIONAL WEATHER ROUNDUP
NATIONAL WEATHER SERVICE LOUISVILLE KY
1100 PM EDT MON APR 24 2017

NOTE "FAIR" INDICATES FEW OR NO CLOUDS BELOW 12,000 FEET
WITH NO SIGNIFICANT WEATHER AND/OR OBSTRUCTIONS TO VISIBILITY.

KYZ001>023-026-027-061>063-070>075-250400-
WESTERN AND SOUTH CENTRAL KENTUCKY

CITY           SKY/WX    TMP DP  RH WIND       PRES   REMARKS
PADUCAH        CLEAR     63  52  67 SE6       29.74R
HENDERSON      CLEAR     58  53  84 CALM      29.75
OWENSBORO      CLEAR     64  54  69 SE5       29.76
HOPKINSVILLE   CLEAR     61  54  79 CALM      29.76S
BOWLING GREEN  CLOUDY    63  57  81 CALM      29.77R
GLASGOW        NOT AVBL
$$

KYZ024-025-028>034-038-045-046-053-250400-
NORTH CENTRAL KENTUCKY

CITY           SKY/WX    TMP DP  RH WIND       PRES   REMARKS
LOUISVILLE/SDF PTCLDY    64  52  64 E6        29.78R
LOUISVILLE/LOU PTCLDY    64  53  67 E3        29.78S
FORT KNOX      CLEAR     62  53  73 E8        29.76S
$$

KYZ035>037-039>044-047>052-055>060-089>105-250400-
NORTHEAST KENTUCKY

CITY           SKY/WX    TMP DP  RH WIND       PRES   REMARKS
LEXINGTON      CLOUDY    62  52  69 E8        29.80S
COVINGTON      CLOUDY    62  53  72 E9        29.82R
FRANKFORT      CLOUDY    63  51  65 NE8       29.78F
$$

KYZ054-064>069-076>088-106>120-250400-
SOUTHEAST KENTUCKY

CITY           SKY/WX    TMP DP  RH WIND       PRES   REMARKS
JACKSON        PTCLDY    56  52  86 CALM      29.82S
LONDON         CLEAR     59  51  75 E3        29.78S
SOMERSET       NOT AVBL
MIDDLESBORO    CLOUDY    61  54  75 CALM      29.79F
MONTICELLO     MOCLDY    57  56  96 VRB7      29.79S
$$





USA.gov is the U.S. government's official web portal to all federal, state and local government web resources and services.